TimeEST,TemperatureF,Dew PointF,Humidity,Sea Level PressureIn,VisibilityMPH,Wind Direction,Wind SpeedMPH,Gust SpeedMPH,PrecipitationIn,Events,Conditions,WindDirDegrees,DateUTC
12:08 AM,32.0,30.2,93,30.06,2.0,NNW,9.2,-,0.00,Snow,Light Snow,340,2013-03-08 05:08:00
12:18 AM,32.0,28.4,87,30.06,4.0,North,9.2,-,0.00,Snow,Light Snow,350,2013-03-08 05:18:00
12:25 AM,32.0,28.4,87,30.06,2.0,North,9.2,-,0.00,Snow,Light Snow,350,2013-03-08 05:25:00
12:33 AM,32.0,28.4,87,30.06,2.0,North,9.2,18.4,0.00,Snow,Light Snow,350,2013-03-08 05:33:00
12:53 AM,32.0,28.9,88,30.06,1.0,NNW,8.1,-,0.00,Snow,Light Snow,340,2013-03-08 05:53:00
1:02 AM,32.0,28.4,87,30.06,1.2,North,8.1,-,0.00,Snow,Light Snow,350,2013-03-08 06:02:00
1:17 AM,32.0,28.4,87,30.07,1.5,North,6.9,-,0.01,Snow,Light Snow,350,2013-03-08 06:17:00
1:26 AM,32.0,28.4,87,30.06,0.8,North,10.4,-,0.01,Snow,Light Snow,350,2013-03-08 06:26:00
1:45 AM,30.2,28.4,93,30.06,0.8,North,8.1,-,0.01,Snow,Light Snow,350,2013-03-08 06:45:00
1:53 AM,30.9,28.9,92,30.05,0.8,North,8.1,17.3,0.01,Snow,Light Snow,350,2013-03-08 06:53:00
2:10 AM,32.0,28.4,87,30.05,1.0,North,8.1,-,0.01,Snow,Light Snow,350,2013-03-08 07:10:00
2:18 AM,30.2,28.4,93,30.05,0.8,North,8.1,-,0.01,Snow,Light Snow,350,2013-03-08 07:18:00
2:32 AM,30.2,28.4,93,30.04,1.0,North,10.4,-,0.01,Snow,Light Snow,350,2013-03-08 07:32:00
2:35 AM,30.2,28.4,93,30.04,1.0,North,9.2,-,0.01,Snow,Light Snow,350,2013-03-08 07:35:00
2:53 AM,30.9,28.9,92,30.04,0.8,North,8.1,-,0.01,Snow,Light Snow,350,2013-03-08 07:53:00
3:35 AM,30.2,28.4,93,30.03,0.8,North,12.7,19.6,0.01,Snow,Light Snow,350,2013-03-08 08:35:00
3:53 AM,30.9,28.9,92,30.02,0.8,NNW,11.5,23.0,0.02,Snow,Light Snow,340,2013-03-08 08:53:00
4:26 AM,30.2,28.4,93,30.02,0.5,North,13.8,23.0,0.00,Fog-Snow,Snow,350,2013-03-08 09:26:00
4:45 AM,30.2,28.4,93,30.02,0.8,North,15.0,23.0,0.01,Snow,Light Snow,350,2013-03-08 09:45:00
4:53 AM,30.9,28.0,89,30.02,0.8,NNW,17.3,25.3,0.01,Snow,Light Snow,340,2013-03-08 09:53:00
5:23 AM,30.2,28.4,93,30.02,0.5,North,11.5,20.7,0.00,Fog-Snow,Snow,350,2013-03-08 10:23:00
5:34 AM,30.2,28.4,93,30.02,0.8,North,12.7,23.0,0.00,Snow,Light Snow,350,2013-03-08 10:34:00
5:53 AM,30.9,28.0,89,30.02,0.8,North,17.3,26.5,0.00,Snow,Light Snow,350,2013-03-08 10:53:00
6:15 AM,30.2,28.4,93,30.02,0.8,North,17.3,32.2,0.00,Snow,Light Snow,360,2013-03-08 11:15:00
6:29 AM,30.2,28.4,93,30.03,0.8,North,13.8,25.3,0.00,Snow,Light Snow,360,2013-03-08 11:29:00
6:50 AM,30.2,28.4,93,30.03,0.5,North,15.0,24.2,0.01,Fog-Snow,Snow,350,2013-03-08 11:50:00
6:53 AM,30.9,28.0,89,30.03,0.5,North,18.4,24.2,0.01,Fog-Snow,Snow,350,2013-03-08 11:53:00
7:06 AM,30.2,28.4,93,30.03,0.5,North,17.3,25.3,0.00,Fog-Snow,Snow,350,2013-03-08 12:06:00
7:19 AM,30.2,28.4,93,30.04,0.2,North,15.0,24.2,0.00,Fog-Snow,Snow,360,2013-03-08 12:19:00
7:27 AM,30.2,28.4,93,30.04,0.2,North,10.4,24.2,0.00,Fog-Snow,Snow,350,2013-03-08 12:27:00
7:40 AM,30.2,28.4,93,30.04,0.5,North,15.0,24.2,0.00,Fog-Snow,Light Snow,350,2013-03-08 12:40:00
7:51 AM,30.2,28.4,93,30.04,0.5,North,15.0,24.2,0.00,Fog-Snow,Snow,350,2013-03-08 12:51:00
7:53 AM,30.9,28.0,89,30.04,0.5,North,13.8,24.2,0.00,Fog-Snow,Light Snow,350,2013-03-08 12:53:00
8:53 AM,30.9,28.0,89,30.04,0.5,North,12.7,21.9,0.01,Fog-Snow,Snow,360,2013-03-08 13:53:00
9:17 AM,30.2,28.4,93,30.05,0.5,North,11.5,27.6,0.00,Fog-Snow,Snow,360,2013-03-08 14:17:00
9:53 AM,30.9,28.9,92,30.05,0.2,North,10.4,18.4,0.00,Fog-Snow,Snow,360,2013-03-08 14:53:00
10:08 AM,32.0,28.4,87,30.05,0.5,North,18.4,27.6,0.01,Fog-Snow,Snow,360,2013-03-08 15:08:00
10:13 AM,32.0,28.4,87,30.05,0.2,North,13.8,27.6,0.01,Fog-Snow,Snow,350,2013-03-08 15:13:00
10:31 AM,32.0,28.4,87,30.06,0.2,North,11.5,24.2,0.01,Fog-Snow,Snow,360,2013-03-08 15:31:00
10:50 AM,32.0,28.4,87,30.06,0.5,North,12.7,19.6,0.01,Fog-Snow,Snow,350,2013-03-08 15:50:00
10:53 AM,32.0,28.9,88,30.06,0.5,North,15.0,20.7,0.01,Fog-Snow,Snow,350,2013-03-08 15:53:00
11:02 AM,32.0,28.4,87,30.06,0.8,North,12.7,20.7,0.00,Snow,Light Snow,350,2013-03-08 16:02:00
11:14 AM,32.0,28.4,87,30.06,0.5,NNW,11.5,20.7,0.00,Fog-Snow,Light Snow,340,2013-03-08 16:14:00
11:21 AM,32.0,28.4,87,30.06,0.5,North,13.8,20.7,0.00,Fog-Snow,Light Snow,350,2013-03-08 16:21:00
11:35 AM,33.8,28.4,81,30.06,1.0,North,12.7,21.9,0.01,Snow,Light Snow,350,2013-03-08 16:35:00
11:53 AM,33.1,28.9,85,30.06,2.5,North,12.7,23.0,0.01,Snow,Light Snow,350,2013-03-08 16:53:00
12:00 PM,33.8,28.4,81,30.06,3.0,North,15.0,23.0,0.00,Snow,Light Snow,360,2013-03-08 17:00:00
12:53 PM,34.0,28.9,82,30.05,10.0,North,13.8,25.3,0.00,,Overcast,360,2013-03-08 17:53:00
1:53 PM,36.0,30.0,79,30.07,10.0,North,13.8,24.2,N/A,,Overcast,360,2013-03-08 18:53:00
2:39 PM,37.4,30.2,75,30.08,10.0,North,13.8,19.6,N/A,,Overcast,360,2013-03-08 19:39:00
2:53 PM,37.0,30.0,76,30.08,10.0,North,10.4,19.6,N/A,,Overcast,10,2013-03-08 19:53:00
3:53 PM,39.0,28.9,67,30.09,10.0,North,9.2,17.3,N/A,,Mostly Cloudy,10,2013-03-08 20:53:00
4:53 PM,39.0,28.9,67,30.10,10.0,North,10.4,16.1,N/A,,Overcast,10,2013-03-08 21:53:00
5:53 PM,39.9,30.0,68,30.14,10.0,North,11.5,-,N/A,,Overcast,10,2013-03-08 22:53:00
6:53 PM,39.9,28.9,65,30.17,10.0,NNE,10.4,-,N/A,,Overcast,20,2013-03-08 23:53:00
7:53 PM,39.9,28.0,63,30.18,10.0,North,12.7,-,N/A,,Overcast,360,2013-03-09 00:53:00
8:53 PM,39.0,27.0,62,30.21,10.0,North,9.2,-,N/A,,Clear,360,2013-03-09 01:53:00
9:53 PM,37.9,24.1,57,30.22,10.0,North,11.5,23.0,N/A,,Clear,10,2013-03-09 02:53:00
10:53 PM,37.0,24.1,59,30.23,10.0,North,9.2,-,N/A,,Partly Cloudy,10,2013-03-09 03:53:00
11:53 PM,36.0,24.1,62,30.23,10.0,NNE,11.5,-,N/A,,Clear,20,2013-03-09 04:53:00